www.pogodaiklimat.ru
ПОГОДА в Сале
Время
(UTC), дата
06 10.11
09 10.11
12 10.11
15 10.11
18 10.11
21 10.11
00 11.11
03 11.11
06 11.11
09 11.11
12 11.11
15 11.11
18 11.11
21 11.11
00 12.11
03 12.11
06 12.11
09 12.11
12 12.11
15 12.11
18 12.11
21 12.11
00 13.11
03 13.11
06 13.11
09 13.11
12 13.11
15 13.11
18 13.11
21 13.11
00 14.11
03 14.11
06 14.11
09 14.11
12 14.11
15 14.11
18 14.11
21 14.11
03 15.11
06 15.11
09 15.11
12 15.11
15 15.11
18 15.11
21 15.11
00 16.11
03 16.11
06 16.11
09 16.11
12 16.11
15 16.11
18 16.11
21 16.11
00 17.11
03 17.11
Ветер
(напр.,м/с)
Видим. Явления Облачность Т
(С)
Тd
(С)
f
(%)
Тe
(С)
Тes
(С)
Комфортность P
(гПа)
Po
(гПа)
Тmin
(С)
Tmax
(С)
R
(мм)
R24
(мм)
S
(см)
СВ 6 10 км 9/6 420 м
[Cu med, cong Ci fib]
+24.0 +19.7 77 +29 +29 душно 1013.5 1007.3 +21.4
СВ 7 9000 м пыль 9/4 400 м
[Cu med, cong Ci sp]
+25.2 +19.3 70 +30 +31 душно 1015.5 1009.4
СВ 9 9000 м пыль 8/6 400 м
[Cu med, cong Ci sp]
+26.2 +19.6 67 +32 +32 очень
душно
1015.6 1009.5
СВ 10 9000 м пыль 8/5 420 м
[Cu med, cong Ac trans Ci sp]
+27.6 +19.1 60 +33 +33 очень
душно
1013.8 1007.7
СВ 8 9000 м пыль 9/6 420 м
[Cu med, cong Ci fib]
+24.9 +20.4 76 +31 +31 очень
душно
1013.3 1007.2 +27.6
СВ 8 9000 м пыль 8/5 420 м
[Cu med, cong Ac trans Ci fib]
+24.0 +18.9 73 +29 +29 душно 1015.3 1009.1
СВ 7 9000 м пыль 9/4 420 м
[Cu med, cong Ac trans]
+23.6 +18.9 75 +28 +28 душно 1015.4 1009.2
СВ 6 9000 м пыль 6/4 420 м
[Cu med, cong Ci fib]
+23.0 +19.4 80 +29 +29 очень
душно
1014.1 1007.9
СВ 7 9000 м пыль 6/4 420 м
[Cu med, cong Ci sp]
+22.4 +19.6 84 +28 +28 душно 1013.4 1007.2 +20.1
СВ 7 10 км 6/3 420 м
[Cu med, cong Ci sp]
+24.5 +19.9 76 +30 +30 очень
душно
1013.8 1007.6
СВ 8 12 км 6/4 420 м
[Cu med, cong Ci sp]
+26.5 +19.9 67 +32 +33 очень
душно
1014.4 1008.3
СВ 9 12 км 5/4 420 м
[Cu med, cong Ci fib]
+28.0 +20.1 62 +34 +35 очень
душно
1012.3 1006.2
СВ 8 9000 м пыль 5/0
[Ci sp]
+26.2 +19.1 65 +31 +32 очень
душно
1011.6 1005.5 +27.8
СВ 7 8000 м пыль 4/0
[Ci sp]
+25.0 +18.2 66 +29 +29 душно 1013.6 1007.5
СВ 7 8000 м пыль 5/0
[Ci fib]
+24.5 +18.7 70 +29 +29 душно 1013.9 1007.7
СВ 7 9000 м пыль 8/0
[Ci sp]
+23.6 +19.1 76 +28 +28 душно 1013.4 1007.2
СВ 8 9000 м пыль 9/1 420 м
[Sc Ci]
+23.2 +19.2 78 +30 +30 очень
душно
1011.8 1005.6 +20.6
СВ 8 10 км 6/3 420 м
[Sc Ci fib]
+24.0 +18.6 72 +29 +29 душно 1013.5 1007.3
СВ 10 10 км 5/4 420 м
[Sc Ci fib]
+26.3 +19.0 64 +31 +32 душно 1013.5 1007.4
СВ 9 9000 м 8/5 420 м
[Sc Ci fib]
+27.5 +18.5 58 +32 +33 очень
душно
1011.6 1005.5
СВ 10 7000 м пыль 9/4 420 м
[Cu med, cong Ci sp]
+24.6 +18.1 67 +29 +29 душно 1010.8 1004.7 +29.8
СВ 9 8000 м пыль 9/5 420 м
[Sc Ci fib]
+23.3 +16.8 67 +28 +28 душно 1012.4 1006.2
СВ 8 9000 м пыль 8/6 420 м
[Cu med, cong Ci fib]
+23.2 +17.2 69 +28 +28 душно 1013.7 1007.5
СВ 6 9000 м пыль 8/6 420 м
[Cu med, cong Ci fib]
+22.6 +16.6 69 +27 +27 душно 1013.3 1007.1
СВ 6 10 км 6/6 420 м
[Cu med, cong Ci fib]
+22.5 +16.8 70 +27 +27 душно 1011.5 1005.3 +20.3
СВ 6 15 км 6/5 420 м
[Cu med, cong Ci sp]
+23.8 +16.6 64 +27 +28 жарко 1013.1 1006.9
СВ 8 20 км 4/4 420 м
[Cu med, cong Ci fib]
+25.4 +16.8 59 +29 +31 душно 1013.5 1007.4
СВ 6 20 км 8/8 420 м
[Cu med, cong Ci fib]
+26.8 +17.9 58 +31 +32 душно 1012.1 1006.0
СВ 5 20 км 10/6 420 м
[Cu med, cong Ac trans Ci fib]
+25.3 +17.5 62 +29 +29 душно 1011.5 1005.4 +27.0
СВ 4 12 км 9/6 420 м
[Cu med, cong Ac trans]
+23.8 +17.5 68 +28 +28 душно 1012.4 1006.2
СВ 4 12 км 8/5 420 м
[Cu med, cong Ac trans]
+23.0 +18.3 75 +29 +29 очень
душно
1012.9 1006.7
С 3 12 км 9/4 420 м
[Cu med, cong Ac trans]
+23.0 +17.9 73 +28 +28 душно 1012.0 1005.8
СВ 3 12 км 9/4 420 м
[Cu med, cong Ac trans]
+22.4 +18.0 76 +27 +27 душно 1011.8 1005.6 +20.4
СВ 4 15 км 9/3 420 м
[Cu med, cong Ac trans Ci sp]
+23.6 +18.3 72 +28 +28 душно 1013.0 1006.8
В 5 18 км 6/5 420 м
[Cu med, cong Ac trans Ci sp]
+25.8 +17.2 59 +30 +33 душно 1013.6 1007.5
В 5 18 км 9/8 420 м
[Cu med, cong Ac trans Ci sp]
+26.7 +18.3 60 +31 +32 душно 1011.8 1005.7
С 4 12 км 9/6 420 м
[Cu med, cong Ac trans Ci fib]
+24.6 +18.3 68 +29 +29 душно 1011.4 1005.3 +27.5
С 3 12 км 6/4 420 м
[Cu med, cong Ac trans Ci fib]
+23.5 +18.4 73 +28 +28 душно 1012.8 1006.6
СВ 3 12 км 8/4 420 м
[Cu med, cong Ac trans Ci fib]
+22.7 +17.8 74 +28 +28 душно 1012.0 1005.8
С 3 10 км 8/6 420 м
[Cu med, cong Ac trans]
+22.1 +17.9 77 +27 +27 душно 1011.5 1005.3 +19.7
СВ 4 12 км 8/4 420 м
[Cu med, cong Ac trans Ci fib]
+24.2 +18.2 69 +29 +29 душно 1012.6 1006.5
СВ 7 12 км 8/6 420 м
[Cu med, cong Ac trans Cc]
+26.8 +17.6 57 +31 +32 душно 1012.4 1006.3
СВ 6 15 км 8/6 420 м
[Cu med, cong Ci fib]
+26.6 +17.9 59 +31 +33 душно 1010.9 1004.8
СВ 6 12 км 9/5 420 м
[Cu med, cong Ac trans Cc]
+24.8 +17.8 65 +29 +29 душно 1010.6 1004.5 +26.9
СВ 5 12 км 8/6 420 м
[Cu med, cong Ci fib]
+23.8 +17.8 69 +28 +28 душно 1012.0 1005.8
СВ 4 10 км 8/4 420 м
[Cu med, cong Ac trans Ci fib]
+22.8 +17.7 73 +28 +28 душно 1012.7 1006.5
СВ 4 10 км 9/4 420 м
[Cu med, cong Ci]
+23.1 +17.6 71 +28 +28 душно 1011.7 1005.5
СВ 3 10 км 9/4 420 м
[Cu med, cong Ac trans Ci sp]
+21.9 +16.6 72 +26 +26 душно 1011.4 1005.2 +20.3
СВ 3 12 км 6/4 420 м
[Cu med, cong Ac trans Cc]
+24.0 +17.3 66 +28 +28 душно 1012.7 1006.5
15 км 8/6 420 м
[Cu med, cong Ac trans Ci sp]
+26.0 +16.8 57 1012.8 1006.7
СВ 5 20 км 9/9 420 м
[Cu med, cong Ci fib]
+26.7 +16.9 55 +30 +31 душно 1011.0 1004.9
СВ 5 18 км 8/6 420 м
[Cu med, cong Ci fib]
+24.8 +17.8 65 +29 +29 душно 1011.3 1005.2 +26.8
СВ 4 15 км 5/5 420 м
[Cu med, cong Ci fib]
+23.7 +18.6 73 +28 +28 душно 1012.2 1006.0
В 3 12 км 5/4 420 м
[Cu med, cong Ci sp]
+23.1 +18.4 75 +29 +29 очень
душно
1013.8 1007.6
СВ 5 12 км 9/5 420 м
[Cu med, cong Ac trans]
+23.8 +19.9 79 +29 +29 душно 1012.4 1006.2
Местоположение метеостанции Сал (Кабо-Верде): широта 16.73 долгота -22.95 высота над уровнем моря 53 м.
В архиве по умолчанию представлена погода в Сале за последнюю неделю. Архивные данные за месяц целиком и за предыдущие месяцы, начиная с января 2011 года, Вы можете получить, выбрав интересующий диапазон дат из раскрывающегося списка и нажав кнопку "Найти!".
*Определитесь, кто Вы:
Внимание! Время в таблицах - всемирное. Для получения местного времени необходимо прибавить поправку, которая равна -1 ч.
Смотрите также архив погоды в соседних городах и на ближайших метеорологических станциях:
Партнеры нашего сайта:      
Пояснения к столбцам:
  • Ветер - указаны скорость ветра в м/с - средняя за 10 мин, порывы в срок и между сроками (в фигурных скобках) и направление, откуда дует ветер: С - северный,
  • СВ - северо-восточный, В - восточный, ЮВ - юго-восточный, Ю - южный, ЮЗ - юго-западный, З - западный, СЗ - северо-западный.
  • Видимость - горизонтальная дальность видимости в метрах или километрах. При видимости от 1 до 10 км при отсутствии осадков обычно наблюдается дымка, при ухудшении видимости до 1 км и менее - туман. В сухую погоду видимость может ухудшаться дымом, пылью или мглою.
  • Явления - указаны атмосферные явления, наблюдавшиеся в срок или в последний час перед сроком; фигурными скобками обозначены явления, наблюдавшиеся между сроками (за 1-3 часа до срока); квадратными скобками обозначены град или гололедные отложения с указанием их диаметра в мм.
  • Облачность - указаны через наклонную черту общая и нижняя облачность в баллах и высота нижней границы облаков в метрах; квадратными скобками обозначены формы облаков: Ci - перистые, Cs - перисто-слоистые, Cc - перисто-кучевые, Ac - высококучевые, As - высокослоистые, Sc - слоисто-кучевые, Ns - слоисто-дождевые, Cu - кучевые, Cb - кучево-дождевые. Подробнее классификацию облаков см. в Атласе облаков (PDF).
  • T - Температура воздуха - температура, измеренная на высоте 2 м над землей.
  • Td - Температура точки росы - температура, при понижении до которой содержащийся в воздухе водяной пар достигнет насыщения.
  • f - Относительная влажность воздуха - влажноcть воздуха, измеренная на высоте 2 м над землей.
  • Te - Эффективная температура - температура, которую ощущает одетый по сезону человек в тени. Характеристика душности погоды. При расчете учитывается влияние влажности воздуха и скорости ветра на теплоощущения человека.
  • Tes - Эффективная температура на солнце - температура, которую ощущает человек, с поправкой на солнечный нагрев. Характеристика знойности погоды. Зависит от высоты солнца над горизонтом, облачности и скорости ветра. Ночью, в пасмурную погоду, а также при ветре 12 м/с и более поправка равна нулю.
  • P - Атмосферное давление - приведенное к уровню моря атмосферное давление.
  • Po - Атмосферное давление - измеренное на уровне метеостанции атмосферное давление.
  • Tmin - Минимальная температура - минимум температуры воздуха на высоте 2 м над землей.
  • Tmax - Максимальная температура - максимум температуры воздуха на высоте 2 м над землей.
  • R - Количество осадков - Количество выпавших осадков за период времени, мм. При наведении курсора мыши на число - период времени, за который выпало указанное количество осадков.
  • R24 - Количество осадков - Количество выпавших осадков за 24 часа, мм.
  • S - Снежный покров - Высота снежного покрова, см. При наведении курсора мыши на число - состояние снежного покрова и степень покрытия местности в баллах.